Flag for Norway Weather past 2 weeks in Lillestrøm, Norway

Now
59 °F

Cool.


Feels Like: 59 °F
Forecast: 56 / 75 °F
Wind: 5 mph from North

Location: Oslo-Blindern

Current Time: Jun 30, 2015 at 8:27:22 AM

Latest Report: Jun 30, 2015 at 7:00 AM


Visibility: N/A

Pressure: 30.03 "Hg

Humidity: 72%

Dew point: 50 °F

Location of LillestrømLocation

Historic Weather in Lillestrøm — Graph

°F

Lillestrøm temperature yesterday

Maximum temperature yesterday: 73 °F (at 2:00 PM)
Minimum temperature yesterday: 56 °F (at 2:00 AM)
Average temperature yesterday: 63 °F

Past Weeks' High & Low Weather Summary

 TemperatureHumidityPressure
High73 °F (Jun 29, 2:00 PM)98% (Jun 25, 2:00 AM)30.09 "Hg (Jun 25, 2:00 AM)
Low46 °F (Jun 19, 5:00 AM)25% (Jun 16, 6:00 PM)29.59 "Hg (Jun 18, 7:00 AM)
Average59 °F66%29.84 "Hg
* Reported Jun 15 7:00 AM — Jun 30 7:00 AM, Lillestrøm, Weather by CustomWeather, © 2015

Note: Actual official high and low records may vary slightly from our data, if they occured in-between our weather recording intervals... More about our weather records

Advertising

Lillestrøm weather history for previous 24 hours

 ConditionsComfort  
Time TempWeatherWind HumidityBarometerVisibility
7:00 AM
Tue, Jun 30
59 °FCool.5 mph72%30.03 "HgN/A
6:00 AM58 °FCool.3 mph74%30.02 "HgN/A
4:00 AM56 °FCool.1 mph71%29.98 "HgN/A
3:00 AM56 °FCool.1 mph73%29.97 "HgN/A
2:00 AM59 °FOvercast.2 mph87%29.95 "Hg12 mi
1:00 AM58 °FCool.1 mph95%29.94 "HgN/A
12:00 AM59 °FCool.2 mph93%29.93 "HgN/A
10:00 PM
Mon, Jun 29
61 °FCool.2 mph88%29.92 "HgN/A
9:00 PM63 °FMild.3 mph83%29.91 "HgN/A
8:00 PM64 °FPartly sunny.3 mph76%29.90 "Hg43 mi
7:00 PM66 °FMild.2 mph64%29.89 "HgN/A
6:00 PM67 °FMild.3 mph69%29.88 "HgN/A
5:00 PM68 °FPartly sunny.5 mph64%29.88 "Hg43 mi
4:00 PM70 °FMild.7 mph61%29.88 "HgN/A
3:00 PM70 °FMild.5 mph60%29.87 "HgN/A
2:00 PM73 °FScattered clouds.5 mph54%29.86 "Hg40 mi
1:00 PM72 °FMild.6 mph57%29.87 "HgN/A
12:00 PM70 °FMild.6 mph56%29.88 "HgN/A
11:00 AM66 °FMild.5 mph63%29.88 "HgN/A
10:00 AM62 °FCool.3 mph72%29.88 "HgN/A
9:00 AM61 °FCool.2 mph77%29.88 "HgN/A
8:00 AM57 °FLow clouds.3 mph86%29.88 "Hg43 mi
Weather by CustomWeather, © 2015

See weather overviewHow to use our weather pages